This demonstration page uses our WeatherBlox Daily Observations layout. Learn more.

Left ArrowRight Arrow

34.02893, -84.19858

Hourly Observations for April 17, 2019

Temp ( °F °C ) Dew Point ( °F °C ) Humidity (%) Winds ( mph kmh ) Pressure ( in mb ) Visibility ( mi km ) Precip ( " mm )
12:53 am 00:53 Clear 53 11.7 46 7.8 77 77 Calm 30.16 1021 10 16 0.00 0.00
1:53 am 01:53 Clear 51 10.6 46 7.8 83 83 Calm 30.14 1021 10 16 0.00 0.00
2:53 am 02:53 Clear 50 10 46 7.8 86 86 Calm 30.13 1020 10 16 0.00 0.00
3:53 am 03:53 Clear 49 9.4 46 7.8 90 90 Calm 30.12 1020 10 16 0.00 0.00
4:53 am 04:53 Clear 48 8.9 46 7.8 93 93 Calm 30.11 1020 10 16 0.00 0.00
5:53 am 05:53 Clear 47 8.3 45 7.2 93 93 Calm 30.11 1020 10 16 0.00 0.00
6:53 am 06:53 Clear 47 8.3 46 7.8 97 97 Calm 30.12 1020 10 16 0.00 0.00
7:53 am 07:53 Sunny 50 10 48 8.9 93 93 Calm 30.14 1021 10 16 0.00 0.00
8:53 am 08:53 Sunny 60 15.6 50 10 70 70 Calm 30.16 1021 10 16 0.00 0.00
9:53 am 09:53 Sunny 64 17.8 48 8.9 56 56 S 6 9 30.16 1021 10 16 0.00 0.00
10:53 am 10:53 Sunny 68 20 49 9.4 51 51 SW 6 9 30.16 1021 10 16 0.00 0.00
11:53 am 11:53 Sunny 72 22.2 48 8.9 43 43 VRB 3 6 30.15 1021 10 16 0.00 0.00
12:53 pm 12:53 Sunny 73 22.8 47 8.3 40 40 VRB 6 9 30.13 1020 10 16 0.00 0.00
1:53 pm 13:53 Sunny 76 24.4 49 9.4 39 39 SSW 8 13 30.11 1020 10 16 0.00 0.00
2:53 pm 14:53 Sunny 78 25.6 47 8.3 33 33 S 10 17 30.08 1019 10 16 0.00 0.00
3:53 pm 15:53 Sunny 78 25.6 48 8.9 35 35 SSE 7 11 30.05 1018 10 16 0.00 0.00
4:53 pm 16:53 Sunny 79 26.1 51 10.6 38 38 SSW 8 13 30.02 1017 10 16 0.00 0.00
5:53 pm 17:53 Sunny 78 25.6 52 11.1 40 40 S 6 9 30.01 1016 10 16 0.00 0.00
6:53 pm 18:53 Sunny 76 24.4 51 10.6 42 42 SSE 8 13 30.02 1017 10 16 0.00 0.00
7:53 pm 19:53 Sunny 72 22.2 51 10.6 48 48 SSE 6 9 30.02 1017 10 16 0.00 0.00
8:53 pm 20:53 Clear 69 20.6 53 11.7 57 57 SSE 6 9 30.01 1016 10 16 0.00 0.00
9:53 pm 21:53 Clear 68 20 53 11.7 59 59 S 7 11 30.04 1017 10 16 0.00 0.00
10:53 pm 22:53 Clear 66 18.9 53 11.7 63 63 S 5 7 30.04 1017 10 16 0.00 0.00
11:53 pm 23:53 Clear 63 17.2 53 11.7 70 70 S 3 6 30.02 1017 10 16 0.00 0.00

Powered by AerisWeather